Location: Branche des Alpilles
(43.6087°N, 4.6976°E)
Time: 08:34:35
(UTC+00:00)

USA 267 - Pass Details

Date: 30 November 2020
Orbit: 1100 x 1107 km, 123.0° (Epoch: 18 January)

Event Time Altitude Azimuth Distance (km) Brightness Sun altitude
Exits shadow 18:18:23 43° 65° (ENE) 1,502 3.5 -23.4°
Maximum altitude 18:19:50 50° 28° (NNE) 1,373 3.5 -23.6°
Drops below altitude 10° 18:26:06 10° 316° (NW) 2,968 6.0 -24.7°
Sets 18:28:39 0° 311° (NW) 3,928 6.8 -25.2°
